RH
38 32 30 37 37 38 44 43 39 34 32 31 29 28 26 35 46 54 51 70 62 61 74 71 89 99 99 96 100 100 100 100 98 100 85 75 66 72 66 54 37 37 42 41 63
46 41 37 34 28 29 29 35 41 39 40 35 30 34 28 26 24 36 56 62 55 50 64 80 83 74 70 67 67 81 98 100 100 100 96 90 73 72 74 72 58 41 33 37 51
57 52 40 41 37 35 32 31 32 30 32 27 31 33 27 29 27 23 25 52 59 65 53 49 51 67 73 75 99 91 88 73 93 100 100 97 92 90 84 86 70 54 48 40 33
76 72 70 61 49 42 35 35 31 28 28 25 25 23 25 26 25 32 36 33 41 63 63 65 46 38 45 59 62 72 83 100 100 100 100 100 100 100 100 91 69 62 52 54 43
81 77 68 56 62 51 41 36 30 26 24 22 20 22 21 23 24 24 29 31 46 37 51 54 64 63 50 35 35 35 44 45 52 70 92 100 100 92 83 69 68 65 62 58 50
81 71 66 53 48 45 35 28 35 29 24 20 21 21 19 18 18 19 22 24 29 37 40 58 48 54 59 64 52 40 34 32 31 31 34 45 61 62 75 69 68 68 70 63 58
44 42 46 40 37 35 32 40 33 40 32 25 21 22 19 19 18 17 21 21 22 29 26 58 54 64 72 64 61 61 56 42 39 38 33 34 48 47 47 64 63 66 68 70 56
40 43 39 40 34 34 37 30 28 30 30 25 22 26 26 22 17 15 18 21 19 23 28 32 37 48 53 66 86 75 69 66 61 50 41 38 42 40 46 45 53 47 46 48 50
31 30 23 28 29 20 27 22 23 27 22 18 19 17 20 16 15 12 19 21 23 18 21 29 30 33 45 55 67 92 99 83 69 68 62 51 48 49 49 50 53 51 49 52 62
16 21 18 19 21 20 16 19 19 16 15 15 15 14 13 12 11 12 16 14 12 12 15 20 25 34 48 37 34 48 69 80 84 76 81 77 72 68 69 66 65 68 71 73 77
17 16 15 15 15 14 14 14 14 13 13 14 14 14 13 13 12 12 12 11 10 12 13 15 18 20 22 32 41 36 36 42 71 94 91 81 84 81 78 82 79 76 73 70 72
15 16 16 16 18 17 16 15 15 15 13 16 14 15 14 13 12 11 11 12 12 10 10 12 14 17 22 22 24 31 40 40 42 38 47 63 72 87 91 75 72 74 69 70 68
18 18 17 17 16 15 14 13 13 13 13 16 16 16 14 14 14 13 12 13 13 13 11 10 9 10 13 16 15 15 19 30 40 40 36 44 47 48 42 39 46 54 56 54 58
17 15 13 13 14 14 14 14 13 12 11 13 15 14 15 15 14 14 14 13 14 15 14 10 9 9 10 10 9 10 12 14 17 19 23 32 37 37 29 26 28 28 29 27 26
15 14 14 12 13 13 14 13 13 12 10 13 16 16 16 16 16 15 15 14 15 15 14 12 10 9 8 8 8 8 8 8 10 13 16 20 20 21 22 21 21 21 20 22 22
15 13 13 13 13 13 13 13 13 12 11 12 14 15 16 16 16 16 15 14 14 15 14 14 12 10 9 8 8 7 7 8 9 10 12 14 15 16 18 15 16 17 17 19 23
13 13 13 13 12 11 10 10 9 9 8 9 10 12 14 15 15 15 15 14 14 16 15 14 13 11 9 7 7 6 6 8 8 9 12 15 13 12 13 17 16 13 14 18 16
14 13 13 10 9 9 8 9 8 7 7 8 10 10 12 13 12 13 13 13 14 15 15 16 13 12 9 8 7 7 6 6 7 8 10 10 10 12 12 13 14 20 23 17 15
13 11 11 10 10 10 8 8 8 9 8 9 11 10 12 12 13 13 12 12 14 14 16 16 13 11 9 8 8 7 6 6 6 7 8 8 8 11 13 14 16 15 15 15 16
12 10 10 11 11 10 8 7 7 7 8 8 10 11 13 14 15 14 12 13 13 16 17 16 12 10 8 7 7 7 7 7 7 8 7 7 7 8 10 12 13 14 14 15 16
11 12 12 11 10 8 7 7 7 7 7 9 10 12 13 14 16 16 14 14 14 17 18 16 11 9 8 8 7 7 8 8 8 8 7 7 7 8 10 12 12 12 14 15 15
12 13 11 9 9 9 8 9 8 7 8 10 11 12 13 14 15 17 18 17 16 18 19 16 10 9 9 7 8 9 10 10 9 8 7 7 7 9 9 10 12 14 16 14 15
13 12 10 10 11 11 10 10 9 8 8 9 11 12 12 14 14 15 17 18 18 19 20 15 11 9 8 8 10 10 10 9 9 8 7 7 7 8 10 12 14 16 15 14 13
14 11 11 12 12 12 11 11 9 8 8 9 12 12 12 12 14 15 16 17 19 21 19 14 11 9 9 11 11 11 10 9 9 8 8 8 9 11 13 14 15 15 14 14 19
13 11 12 12 12 11 10 12 9 8 8 9 11 12 12 13 14 15 16 16 21 23 19 15 11 10 11 11 11 11 11 11 9 10 9 10 12 13 14 15 14 13 16 30 31
12 12 13 12 11 10 9 11 11 8 8 11 12 12 13 13 14 15 15 19 24 22 17 12 11 12 12 12 12 12 13 10 9 9 11 12 13 15 15 14 14 20 35 38 48
13 14 12 11 10 10 9 10 11 9 9 12 12 12 13 15 16 17 20 22 22 20 14 14 14 13 13 13 14 13 12 12 11 14 14 16 16 15 14 16 28 41 49 51 60
Wind_Speed
70 69 68 77 78 76 77 78 78 78 77 75 73 72 69 74 72 70 69 70 69 69 69 68 69 71 71 73 72 70 63 63 64 62 60 59 56 52 52 49 50 52 49 48 47
74 72 75 74 74 77 81 79 79 80 79 81 81 82 80 78 80 77 77 75 75 74 74 73 73 73 72 71 67 66 66 71 70 69 67 65 62 60 59 56 56 55 54 54 56
81 76 77 77 81 84 82 87 90 86 87 89 88 88 89 89 85 82 81 82 82 80 79 79 78 77 77 75 75 72 71 67 68 69 71 67 68 63 64 63 62 60 57 60 60
86 85 83 85 89 87 88 89 92 92 94 92 94 89 96 94 91 89 90 88 88 87 87 85 82 80 80 79 78 77 78 78 78 75 72 71 68 67 68 73 66 65 62 63 63
91 91 95 95 97 99 95 95 94 95 91 90 85 91 88 94 96 96 97 95 95 93 92 92 90 87 84 83 82 80 82 81 79 81 81 80 80 76 74 72 68 70 69 65 64
95 101 99 97 100 100 101 98 98 96 91 87 87 90 85 86 88 94 93 99 98 98 99 96 96 95 91 89 86 85 84 83 81 80 79 79 81 77 81 73 74 73 74 71 72
101 102 101 103 103 106 104 102 101 101 100 100 94 92 88 90 92 95 101 101 103 104 103 106 102 99 98 96 92 90 89 89 87 85 80 80 80 77 81 79 77 77 77 78 78
105 102 105 106 108 107 106 104 104 100 104 106 101 98 95 98 91 93 95 103 104 103 107 108 108 106 102 101 100 98 95 95 92 90 85 83 82 81 82 78 80 79 79 81 81
108 108 99 107 101 91 105 103 89 93 98 90 91 83 89 90 90 87 90 94 102 103 106 109 110 107 107 105 107 106 103 102 99 98 92 90 89 88 88 85 83 83 86 86 86
91 95 86 89 84 93 86 86 82 84 87 86 84 82 79 82 82 83 85 89 94 92 95 101 103 109 110 111 108 106 107 107 108 102 100 98 96 96 94 90 90 90 90 90 92
81 82 83 82 78 80 80 80 83 81 80 84 83 83 81 83 82 82 81 85 87 88 90 94 97 100 102 107 115 112 108 108 108 107 105 103 101 104 99 96 96 96 94 93 95
80 80 81 81 79 80 83 82 84 86 78 81 84 82 82 83 82 83 85 84 84 87 88 90 92 95 99 101 101 107 109 113 112 109 106 106 104 106 105 103 101 99 98 96 98
79 79 79 77 78 80 79 80 78 79 75 73 78 78 79 78 80 80 84 82 83 84 86 86 86 88 91 92 94 94 99 107 110 110 109 106 106 106 105 102 101 99 98 97 97
76 76 75 75 77 75 74 71 73 75 72 66 73 72 74 78 77 78 79 78 79 78 81 82 82 83 84 86 86 88 90 94 99 103 106 108 102 100 100 97 97 96 95 93 95
75 74 72 70 69 70 69 66 68 70 62 61 61 67 71 73 73 73 73 71 71 73 75 76 79 80 80 79 82 83 89 90 89 91 96 96 99 92 93 94 92 92 92 92 92
72 71 66 64 64 64 62 62 62 64 56 57 58 63 69 70 70 70 68 68 69 70 72 72 76 75 76 77 76 77 81 85 87 88 86 87 89 85 85 87 84 83 86 88 88
69 66 63 60 61 61 59 59 60 60 57 55 58 61 66 67 66 66 65 66 67 68 68 69 69 70 69 69 72 74 76 77 77 78 77 77 76 76 77 75 75 77 79 78 78
66 64 62 61 59 60 57 56 55 52 50 51 56 60 66 66 63 62 61 62 61 63 63 63 64 65 67 67 67 70 69 67 63 65 68 67 63 67 65 68 68 67 66 65 63
66 62 61 58 53 51 50 45 41 39 40 42 45 49 57 63 65 63 61 58 58 58 56 57 56 60 61 62 64 62 59 57 53 53 55 58 57 56 60 62 61 60 59 56 52
63 62 57 50 45 44 44 38 35 31 33 34 34 38 46 53 58 61 60 57 58 55 54 54 52 51 54 58 56 53 50 45 45 43 46 51 55 55 56 50 50 49 47 45 44
62 56 49 44 42 41 41 36 32 30 32 32 32 34 37 42 46 54 56 57 56 54 54 53 48 50 52 51 47 45 41 37 37 42 45 50 48 48 47 46 44 41 40 40 40
60 50 45 41 41 40 37 32 29 28 29 28 30 31 34 38 42 46 49 54 55 54 53 50 46 47 46 42 38 35 33 34 34 38 40 39 40 38 39 38 37 36 36 35 33
57 47 44 40 40 37 33 29 27 27 27 26 28 30 33 36 39 42 47 50 52 52 52 48 47 44 37 32 33 30 30 29 32 35 34 31 32 34 34 33 31 32 31 29 29
52 45 44 38 37 34 30 26 25 26 26 27 27 29 32 36 38 41 44 46 47 48 51 47 47 41 32 31 30 28 27 28 31 31 28 29 29 30 28 28 29 27 26 25 23
47 43 41 35 31 31 26 24 25 25 25 26 26 27 29 34 36 38 41 41 42 46 48 46 42 34 31 31 27 25 26 28 29 29 29 27 27 25 26 26 24 23 21 20 16
44 42 36 31 29 29 24 23 23 23 23 24 24 24 26 32 33 34 34 36 40 42 43 40 33 29 26 25 23 25 25 26 28 26 25 26 25 25 25 23 21 19 17 14 13
43 37 31 31 28 26 23 24 22 21 22 21 21 22 24 28 29 29 32 34 37 40 37 31 27 25 23 22 23 23 22 23 24 25 25 25 25 25 23 21 18 17 14 17 22
Wind_Direction
293 283 288 283 280 278 275 275 277 277 279 276 276 271 272 265 260 258 256 254 252 252 252 253 255 258 259 259 258 257 254 250 251 256 257 261 263 264 267 267 264 260 264 264 263
289 290 281 287 281 282 278 276 274 274 275 275 277 271 270 272 264 261 257 256 254 253 253 252 253 254 256 257 257 257 259 257 259 259 256 257 261 264 265 265 265 266 264 263 260
289 288 284 283 281 278 280 277 276 274 271 273 271 271 272 270 265 263 264 257 254 254 254 253 251 250 252 253 257 258 257 258 259 257 256 253 257 262 262 264 266 265 265 265 263
289 285 283 284 288 280 279 277 275 272 272 274 269 268 268 268 267 263 260 260 257 254 253 253 253 252 251 251 252 253 254 254 255 257 257 256 260 263 262 266 265 267 268 266 264
290 286 287 288 287 286 283 280 277 275 274 272 270 268 266 266 267 263 260 259 257 256 255 253 252 253 253 253 252 251 252 252 252 252 253 256 259 261 262 263 262 266 266 266 268
287 288 285 284 284 283 284 283 282 278 275 275 273 270 269 267 266 261 259 258 257 256 256 255 253 252 250 252 253 252 253 253 254 254 254 254 257 257 259 261 258 261 264 265 266
288 286 283 285 283 284 283 281 281 277 279 280 278 272 268 270 267 261 257 256 255 254 254 253 253 253 252 252 251 252 253 254 253 254 253 254 255 255 257 257 259 259 261 263 265
283 281 280 281 285 283 280 282 278 273 277 278 278 272 267 269 268 261 258 254 254 254 254 253 253 251 253 254 253 253 252 253 254 255 254 253 255 255 257 257 258 258 259 261 264
285 287 286 281 277 288 278 281 277 272 274 275 273 272 264 262 262 260 257 255 255 254 252 252 252 251 251 252 252 252 251 252 253 255 254 254 254 255 256 257 258 258 260 263 265
295 287 288 284 282 278 279 275 272 268 269 270 268 267 263 259 257 257 255 255 255 255 252 251 251 251 252 253 252 252 252 253 254 253 254 254 254 256 256 257 259 260 262 264 266
294 292 288 285 283 279 276 274 269 269 266 266 266 265 263 259 256 256 252 252 254 253 252 251 249 251 253 253 251 255 254 254 254 254 255 255 255 258 258 258 259 260 262 264 266
295 291 288 286 283 279 277 273 272 268 265 265 264 261 263 261 257 256 255 254 252 253 252 252 251 251 251 252 253 252 253 255 257 256 256 257 257 258 260 259 259 261 263 266 268
295 291 286 283 281 279 277 277 275 272 269 263 264 264 262 261 260 257 256 254 251 253 255 254 252 252 252 251 252 253 253 253 255 256 256 257 257 260 262 262 263 264 265 267 268
293 290 288 287 285 283 279 276 272 271 270 265 261 261 260 259 259 258 257 255 252 251 253 254 254 252 251 251 253 252 253 253 253 255 256 258 257 260 263 263 262 265 266 268 269
297 292 290 288 285 283 280 278 274 272 272 265 263 260 258 257 256 256 256 256 253 252 252 253 254 255 254 253 252 252 253 254 254 255 255 257 258 259 261 263 264 265 267 268 270
295 292 292 289 287 285 283 280 277 273 273 265 258 257 255 256 255 254 255 254 253 252 252 251 253 254 255 254 254 253 254 252 252 254 256 256 257 260 262 264 265 266 268 268 269
296 296 296 293 292 289 283 280 277 274 268 264 260 255 255 255 254 253 253 253 252 251 251 250 251 253 253 254 252 253 253 252 253 256 256 256 259 262 262 262 262 264 265 266 270
302 301 300 297 294 288 284 280 276 273 268 261 256 251 251 252 253 252 251 251 251 251 251 250 251 253 252 252 253 253 255 256 258 257 257 259 259 258 257 258 260 260 262 267 269
304 305 302 300 294 288 286 282 279 274 267 260 255 252 250 247 246 247 248 248 249 250 250 250 249 251 251 253 253 255 257 261 261 262 258 256 255 252 252 252 255 258 263 266 266
307 307 304 300 294 289 287 287 286 277 268 262 257 252 250 246 244 244 244 244 245 246 247 248 249 251 250 252 254 256 259 262 262 260 253 247 246 245 247 252 253 257 261 261 260
311 308 304 300 295 291 290 290 285 278 269 265 257 250 245 244 243 243 242 241 241 241 243 247 250 251 252 254 254 258 260 258 254 252 246 242 242 243 246 248 252 255 256 255 257
312 309 304 302 296 292 290 288 278 268 264 262 256 249 247 243 238 236 238 238 237 237 239 244 249 250 251 253 255 260 258 254 247 244 242 242 240 238 241 244 246 249 250 253 253
312 309 305 302 297 293 288 282 269 265 265 264 260 251 247 243 237 234 232 232 234 235 236 242 247 249 253 256 259 258 251 244 242 238 238 236 232 230 232 235 238 239 245 245 249
310 308 304 301 295 289 284 275 259 259 261 264 262 255 248 239 233 229 229 227 228 229 234 240 246 250 253 257 256 249 243 239 232 226 224 222 221 219 222 226 230 234 237 242 246
309 307 302 300 292 286 283 271 255 256 262 259 259 254 245 235 228 226 225 224 221 226 233 238 245 251 253 253 239 232 229 226 221 211 213 211 208 211 215 220 224 227 232 232 228
308 306 300 298 289 284 278 270 256 257 259 259 258 248 236 229 223 220 221 216 218 224 229 236 241 246 244 229 221 218 217 214 207 204 200 200 200 204 208 210 215 217 216 215 215
309 306 298 295 288 281 273 265 256 254 254 254 253 238 225 218 216 211 211 212 216 221 228 232 235 230 216 208 207 208 204 198 191 183 185 188 195 199 201 203 202 200 196 188 169